| time (UTC) | temp F | wind direction | speed MPH | gust MPH | rain 1hr in | rain 24hr in | rain mn in | humidity % | barometer mb |
| 20260902123031 | 75 | 338 | 0.0 | 0.0 | 0.00 | 0.00 | 0.00 | 79 | 1012.9 |
| 20260902122032 | 76 | 338 | 0.0 | 0.0 | 0.00 | 0.00 | 0.00 | 79 | 1012.9 |
| 20260902121031 | 76 | 338 | 0.0 | 0.0 | 0.00 | 0.00 | 0.00 | 78 | 1012.8 |
| 20260902120032 | 76 | 338 | 0.0 | 0.0 | 0.00 | 0.00 | 0.00 | 77 | 1012.8 |
| 20260902115031 | 77 | 338 | 0.0 | 0.0 | 0.00 | 0.00 | 0.00 | 77 | 1012.8 |
| 20260902114031 | 77 | 338 | 0.0 | 0.0 | 0.00 | 0.00 | 0.00 | 76 | 1012.8 |
| 20260902113031 | 78 | 238 | 0.0 | 0.0 | 0.00 | 0.00 | 0.00 | 76 | 1012.7 |
| 20260902112031 | 78 | 238 | 0.0 | 0.0 | 0.00 | 0.00 | 0.00 | 76 | 1012.7 |
| 20260902111031 | 78 | 238 | 0.0 | 0.0 | 0.00 | 0.00 | 0.00 | 76 | 1012.7 |
| 20260902110031 | 78 | 238 | 0.0 | 0.0 | 0.00 | 0.00 | 0.00 | 76 | 1012.6 |
| 20260902105031 | 78 | 238 | 0.0 | 0.0 | 0.00 | 0.00 | 0.00 | 77 | 1012.4 |
| 20260902104031 | 78 | 238 | 0.0 | 0.0 | 0.00 | 0.00 | 0.00 | 76 | 1012.5 |
| 20260902103032 | 78 | 238 | 0.0 | 0.0 | 0.00 | 0.00 | 0.00 | 75 | 1012.4 |
| 20260902101031 | 79 | 238 | 0.0 | 0.0 | 0.00 | 0.00 | 0.00 | 75 | 1012.4 |
| 20260902100031 | 79 | 238 | 0.0 | 0.0 | 0.00 | 0.00 | 0.00 | 75 | 1012.4 |
| 20260902095031 | 78 | 245 | 0.0 | 0.0 | 0.00 | 0.00 | 0.00 | 76 | 1012.5 |
| 20260902094031 | 78 | 112 | 0.0 | 0.0 | 0.00 | 0.00 | 0.00 | 75 | 1012.5 |
| 20260902092031 | 79 | 112 | 0.0 | 0.0 | 0.00 | 0.00 | 0.00 | 74 | 1012.7 |
| 20260902090031 | 80 | 112 | 0.0 | 0.0 | 0.00 | 0.00 | 0.00 | 73 | 1012.7 |
| 20260902085031 | 80 | 112 | 0.0 | 0.0 | 0.00 | 0.00 | 0.00 | 72 | 1012.7 |
| 20260902084031 | 80 | 112 | 0.0 | 0.0 | 0.00 | 0.00 | 0.00 | 72 | 1012.7 |
| 20260902083031 | 80 | 167 | 0.0 | 0.0 | 0.00 | 0.00 | 0.00 | 72 | 1012.7 |
| 20260902082031 | 80 | 174 | 0.0 | 3.0 | 0.00 | 0.00 | 0.00 | 72 | 1012.8 |
| 20260902081031 | 80 | 138 | 0.0 | 4.0 | 0.00 | 0.00 | 0.00 | 71 | 1012.8 |
| 20260902080031 | 81 | 110 | 1.0 | 4.0 | 0.00 | 0.00 | 0.00 | 71 | 1012.9 |
| 20260902075031 | 81 | 125 | 3.0 | 4.0 | 0.00 | 0.00 | 0.00 | 71 | 1012.9 |
| 20260902074031 | 81 | 126 | 2.0 | 3.0 | 0.00 | 0.00 | 0.00 | 70 | 1013.1 |
| 20260902073031 | 81 | 119 | 2.0 | 4.0 | 0.00 | 0.00 | 0.00 | 70 | 1013.2 |
| 20260902072031 | 81 | 111 | 3.0 | 6.0 | 0.00 | 0.00 | 0.00 | 70 | 1013.2 |
| 20260902071031 | 81 | 99 | 0.0 | 2.0 | 0.00 | 0.00 | 0.00 | 70 | 1013.2 |
| 20260902070031 | 81 | 114 | 0.0 | 1.0 | 0.00 | 0.00 | 0.00 | 69 | 1013.1 |
| 20260902065031 | 81 | 136 | 0.0 | 0.0 | 0.00 | 0.00 | 0.00 | 68 | 1013.1 |
| 20260902064031 | 81 | 107 | 0.0 | 0.0 | 0.00 | 0.00 | 0.00 | 67 | 1013.2 |
| 20260902062031 | 82 | 107 | 0.0 | 0.0 | 0.00 | 0.00 | 0.00 | 66 | 1013.2 |
| 20260902061031 | 82 | 107 | 0.0 | 2.0 | 0.00 | 0.00 | 0.00 | 66 | 1013.2 |
| 20260902060031 | 83 | 96 | 1.0 | 3.0 | 0.00 | 0.00 | 0.00 | 65 | 1013.3 |
| 20260902055031 | 83 | 113 | 1.0 | 2.0 | 0.00 | 0.00 | 0.00 | 64 | 1013.3 |
| 20260902053031 | 84 | 117 | 0.0 | 2.0 | 0.00 | 0.00 | 0.00 | 63 | 1012.9 |
| 20260902052031 | 84 | 130 | 0.0 | 2.0 | 0.00 | 0.00 | 0.00 | 62 | 1012.9 |
| 20260902051031 | 84 | 108 | 2.0 | 3.0 | 0.00 | 0.00 | 0.00 | 61 | 1012.9 |
| 20260902050031 | 85 | 119 | 0.0 | 4.0 | 0.00 | 0.00 | 0.00 | 60 | 1013.0 |
| 20260902045031 | 85 | 89 | 2.0 | 4.0 | 0.00 | 0.00 | 0.00 | 60 | 1013.0 |
| 20260902044031 | 85 | 103 | 1.0 | 4.0 | 0.00 | 0.00 | 0.00 | 59 | 1013.1 |
| 20260902043031 | 85 | 138 | 0.0 | 2.0 | 0.00 | 0.00 | 0.00 | 58 | 1013.1 |
| 20260902042031 | 86 | 92 | 0.0 | 3.0 | 0.00 | 0.00 | 0.00 | 58 | 1013.1 |
| 20260902041031 | 86 | 92 | 2.0 | 6.0 | 0.00 | 0.00 | 0.00 | 58 | 1013.1 |
| 20260902040031 | 87 | 76 | 2.0 | 4.0 | 0.00 | 0.00 | 0.00 | 58 | 1012.9 |
| 20260902035031 | 87 | 132 | 0.0 | 1.0 | 0.00 | 0.00 | 0.00 | 57 | 1012.7 |
| 20260902034031 | 88 | 132 | 0.0 | 2.0 | 0.00 | 0.00 | 0.00 | 56 | 1012.6 |
| 20260902033031 | 88 | 142 | 0.0 | 2.0 | 0.00 | 0.00 | 0.00 | 55 | 1012.5 |
| 20260902032031 | 89 | 163 | 0.0 | 2.0 | 0.00 | 0.00 | 0.00 | 55 | 1012.4 |
| 20260902031031 | 89 | 159 | 1.0 | 5.0 | 0.00 | 0.00 | 0.00 | 54 | 1012.2 |
| 20260902030031 | 89 | 140 | 3.0 | 4.0 | 0.00 | 0.00 | 0.00 | 54 | 1012.0 |
| 20260902025031 | 89 | 130 | 3.0 | 4.0 | 0.00 | 0.00 | 0.00 | 53 | 1011.9 |
| 20260902024031 | 89 | 128 | 2.0 | 6.0 | 0.00 | 0.00 | 0.00 | 53 | 1011.7 |
| 20260902023032 | 90 | 130 | 2.0 | 4.0 | 0.00 | 0.00 | 0.00 | 53 | 1011.4 |
| 20260902022031 | 90 | 118 | 0.0 | 3.0 | 0.00 | 0.00 | 0.00 | 52 | 1011.3 |
| 20260902021031 | 91 | 140 | 2.0 | 3.0 | 0.00 | 0.00 | 0.00 | 51 | 1011.2 |
| 20260902020031 | 91 | 148 | 0.0 | 4.0 | 0.00 | 0.00 | 0.00 | 50 | 1011.1 |
| 20260902015031 | 92 | 130 | 4.0 | 7.0 | 0.00 | 0.00 | 0.00 | 50 | 1010.9 |
| 20260902014031 | 92 | 126 | 2.0 | 8.0 | 0.00 | 0.00 | 0.00 | 49 | 1010.7 |
| 20260902013031 | 92 | 88 | 1.0 | 9.0 | 0.00 | 0.00 | 0.00 | 49 | 1010.6 |
| 20260902012031 | 93 | 96 | 4.0 | 10.0 | 0.00 | 0.00 | 0.00 | 48 | 1010.6 |
| 20260902010031 | 94 | 83 | 4.0 | 9.0 | 0.00 | 0.00 | 0.00 | 44 | 1010.5 |
| 20260902005031 | 95 | 61 | 2.0 | 9.0 | 0.00 | 0.00 | 0.00 | 43 | 1010.5 |
| 20260902004031 | 95 | 86 | 7.0 | 10.0 | 0.00 | 0.00 | 0.00 | 43 | 1010.7 |
| 20260902003031 | 96 | 87 | 1.0 | 8.0 | 0.00 | 0.00 | 0.00 | 42 | 1010.7 |
| 20260902002031 | 96 | 66 | 10.0 | 11.0 | 0.00 | 0.00 | 0.00 | 41 | 1010.6 |
| 20260902001031 | 96 | 104 | 6.0 | 11.0 | 0.00 | 0.00 | 0.00 | 41 | 1010.7 |
| 20260901234031 | 98 | 92 | 7.0 | 11.0 | 0.00 | 0.00 | 0.00 | 41 | 1010.6 |
| 20260901233031 | 98 | 51 | 5.0 | 10.0 | 0.00 | 0.00 | 0.00 | 40 | 1010.5 |
| 20260901232031 | 98 | 71 | 5.0 | 11.0 | 0.00 | 0.00 | 0.00 | 39 | 1010.5 |
| 20260901231031 | 98 | 47 | 5.0 | 11.0 | 0.00 | 0.00 | 0.00 | 40 | 1010.5 |
| 20260901230030 | 97 | 135 | 4.0 | 10.0 | 0.00 | 0.00 | 0.00 | 41 | 1010.6 |
| 20260901225031 | 97 | 79 | 2.0 | 6.0 | 0.00 | 0.00 | 0.00 | 40 | 1010.7 |
| 20260901224031 | 97 | 46 | 2.0 | 7.0 | 0.00 | 0.00 | 0.00 | 41 | 1010.7 |
| 20260901223030 | 98 | 89 | 3.0 | 13.0 | 0.00 | 0.00 | 0.00 | 40 | 1010.7 |
| 20260901222030 | 99 | 340 | 4.0 | 10.0 | 0.00 | 0.00 | 0.00 | 39 | 1010.6 |
| 20260901221031 | 99 | 111 | 8.0 | 12.0 | 0.00 | 0.00 | 0.00 | 39 | 1010.7 |
| 20260901220030 | 98 | 39 | 3.0 | 13.0 | 0.00 | 0.00 | 0.00 | 41 | 1010.8 |
| 20260901215030 | 98 | 92 | 4.0 | 13.0 | 0.00 | 0.00 | 0.00 | 40 | 1010.7 |
| 20260901214030 | 99 | 84 | 11.0 | 11.0 | 0.00 | 0.00 | 0.00 | 38 | 1010.7 |
| 20260901213031 | 99 | 67 | 6.0 | 8.0 | 0.00 | 0.00 | 0.00 | 38 | 1010.7 |
| 20260901212031 | 98 | 84 | 7.0 | 11.0 | 0.00 | 0.00 | 0.00 | 39 | 1010.8 |
| 20260901211030 | 98 | 91 | 3.0 | 11.0 | 0.00 | 0.00 | 0.00 | 41 | 1011.0 |
| 20260901210031 | 99 | 16 | 9.0 | 12.0 | 0.00 | 0.00 | 0.00 | 40 | 1011.1 |
| 20260901205030 | 98 | 140 | 4.0 | 11.0 | 0.00 | 0.00 | 0.00 | 40 | 1011.3 |
| 20260901204030 | 98 | 61 | 3.0 | 13.0 | 0.00 | 0.00 | 0.00 | 41 | 1011.4 |
| 20260901202031 | 98 | 38 | 1.0 | 9.0 | 0.00 | 0.00 | 0.00 | 41 | 1011.7 |
| 20260901201030 | 96 | 114 | 3.0 | 10.0 | 0.00 | 0.00 | 0.00 | 43 | 1011.9 |
| 20260901200030 | 98 | 5 | 4.0 | 11.0 | 0.00 | 0.00 | 0.00 | 42 | 1011.9 |
| 20260901195030 | 98 | 61 | 3.0 | 14.0 | 0.00 | 0.00 | 0.00 | 41 | 1012.1 |
| 20260901194031 | 98 | 65 | 4.0 | 8.0 | 0.00 | 0.00 | 0.00 | 41 | 1012.2 |
| 20260901193030 | 98 | 77 | 3.0 | 8.0 | 0.00 | 0.00 | 0.00 | 42 | 1012.3 |
| 20260901192030 | 97 | 90 | 4.0 | 10.0 | 0.00 | 0.00 | 0.00 | 42 | 1012.5 |
| 20260901191031 | 96 | 133 | 0.0 | 6.0 | 0.00 | 0.00 | 0.00 | 44 | 1012.6 |
| 20260901190030 | 97 | 5 | 2.0 | 9.0 | 0.00 | 0.00 | 0.00 | 44 | 1012.8 |
| 20260901184030 | 96 | 176 | 5.0 | 10.0 | 0.00 | 0.00 | 0.00 | 44 | 1013.1 |
| 20260901182030 | 96 | 117 | 2.0 | 11.0 | 0.00 | 0.00 | 0.00 | 46 | 1013.4 |
| 20260901181030 | 96 | 230 | 2.0 | 9.0 | 0.00 | 0.00 | 0.00 | 46 | 1013.5 |
| 20260901175030 | 94 | 129 | 1.0 | 7.0 | 0.00 | 0.00 | 0.00 | 48 | 1014.0 |
| 20260901174030 | 95 | 55 | 5.0 | 8.0 | 0.00 | 0.00 | 0.00 | 48 | 1014.1 |
| 20260901173030 | 95 | 59 | 10.0 | 11.0 | 0.00 | 0.00 | 0.00 | 48 | 1014.3 |
| 20260901172030 | 94 | 90 | 3.0 | 9.0 | 0.00 | 0.00 | 0.00 | 49 | 1014.3 |
| 20260901171030 | 93 | 96 | 2.0 | 9.0 | 0.00 | 0.00 | 0.00 | 51 | 1014.4 |
| 20260901170030 | 93 | 123 | 5.0 | 10.0 | 0.00 | 0.00 | 0.00 | 51 | 1014.6 |
| 20260901165030 | 93 | 77 | 3.0 | 9.0 | 0.00 | 0.00 | 0.00 | 50 | 1014.7 |
| 20260901164030 | 93 | 74 | 5.0 | 8.0 | 0.00 | 0.00 | 0.00 | 51 | 1014.7 |
| 20260901163030 | 92 | 82 | 4.0 | 9.0 | 0.00 | 0.00 | 0.00 | 52 | 1014.8 |
| 20260901162030 | 93 | 92 | 3.0 | 7.0 | 0.00 | 0.00 | 0.00 | 52 | 1014.9 |
| 20260901161030 | 92 | 190 | 3.0 | 5.0 | 0.00 | 0.00 | 0.00 | 56 | 1015.0 |
| 20260901160030 | 91 | 231 | 2.0 | 7.0 | 0.00 | 0.00 | 0.00 | 56 | 1015.0 |
| 20260901155030 | 91 | 171 | 6.0 | 6.0 | 0.00 | 0.00 | 0.00 | 57 | 1015.0 |
| 20260901154030 | 90 | 132 | 0.0 | 6.0 | 0.00 | 0.00 | 0.00 | 59 | 1015.0 |
| 20260901153030 | 89 | 184 | 3.0 | 6.0 | 0.00 | 0.00 | 0.00 | 60 | 1015.0 |
| 20260901152030 | 89 | 244 | 1.0 | 4.0 | 0.00 | 0.00 | 0.00 | 60 | 1015.0 |
| 20260901150030 | 88 | 259 | 0.0 | 6.0 | 0.00 | 0.00 | 0.00 | 64 | 1014.9 |
| 20260901145030 | 86 | 231 | 1.0 | 8.0 | 0.00 | 0.00 | 0.00 | 66 | 1014.9 |
| 20260901144030 | 86 | 302 | 2.0 | 7.0 | 0.00 | 0.00 | 0.00 | 68 | 1015.1 |
| 20260901143030 | 86 | 220 | 0.0 | 5.0 | 0.00 | 0.00 | 0.00 | 69 | 1015.2 |
| 20260901141030 | 84 | 261 | 0.0 | 5.0 | 0.00 | 0.00 | 0.00 | 73 | 1015.3 |
| 20260901140030 | 84 | 225 | 1.0 | 4.0 | 0.00 | 0.00 | 0.00 | 74 | 1015.4 |
| 20260901135030 | 84 | 225 | 2.0 | 5.0 | 0.00 | 0.00 | 0.00 | 74 | 1015.4 |
| 20260901134030 | 83 | 313 | 0.0 | 0.0 | 0.00 | 0.00 | 0.00 | 77 | 1015.2 |
| 20260901133030 | 82 | 224 | 0.0 | 0.0 | 0.00 | 0.00 | 0.00 | 78 | 1015.3 |
| 20260901132030 | 82 | 232 | 0.0 | 0.0 | 0.00 | 0.00 | 0.00 | 79 | 1015.2 |
| 20260901131030 | 81 | 209 | 0.0 | 0.0 | 0.00 | 0.00 | 0.00 | 80 | 1015.1 |
| 20260901125030 | 78 | 236 | 0.0 | 0.0 | 0.00 | 0.00 | 0.00 | 84 | 1014.8 |
| 20260901124030 | 77 | 236 | 0.0 | 0.0 | 0.00 | 0.00 | 0.00 | 84 | 1014.7 |